TimeEDT,TemperatureF,Dew PointF,Humidity,Sea Level PressureIn,VisibilityMPH,Wind Direction,Wind SpeedMPH,Gust SpeedMPH,PrecipitationIn,Events,Conditions,WindDirDegrees,DateUTC
12:53 AM,44.1,28.9,55,30.10,10.0,SSE,5.8,-,N/A,,Clear,150,2013-05-14 04:53:00
1:53 AM,44.1,30.0,58,30.09,10.0,South,4.6,-,N/A,,Partly Cloudy,170,2013-05-14 05:53:00
2:53 AM,44.1,30.0,58,30.08,10.0,South,4.6,-,N/A,,Scattered Clouds,180,2013-05-14 06:53:00
3:53 AM,44.1,30.0,58,30.08,10.0,SSW,5.8,-,N/A,,Overcast,200,2013-05-14 07:53:00
4:53 AM,44.1,30.0,58,30.07,10.0,South,3.5,-,0.00,Rain,Light Rain,170,2013-05-14 08:53:00
5:53 AM,44.1,30.9,60,30.05,10.0,Calm,Calm,-,N/A,,Overcast,0,2013-05-14 09:53:00
6:53 AM,45.0,30.0,56,30.03,10.0,South,8.1,-,N/A,,Overcast,170,2013-05-14 10:53:00
7:53 AM,46.0,30.9,56,29.99,10.0,SE,11.5,-,N/A,,Overcast,140,2013-05-14 11:53:00
8:53 AM,48.0,33.1,56,30.00,10.0,SSE,8.1,-,N/A,,Overcast,150,2013-05-14 12:53:00
9:53 AM,51.1,36.0,56,29.97,10.0,SSE,9.2,-,N/A,,Overcast,150,2013-05-14 13:53:00
10:53 AM,54.0,37.0,53,29.93,10.0,SSE,10.4,-,0.00,,Overcast,150,2013-05-14 14:53:00
11:53 AM,55.9,35.1,45,29.90,10.0,SE,11.5,-,N/A,,Overcast,140,2013-05-14 15:53:00
12:53 PM,59.0,39.0,48,29.88,10.0,SE,12.7,-,N/A,,Overcast,130,2013-05-14 16:53:00
1:53 PM,62.1,39.9,44,29.86,10.0,SE,12.7,-,N/A,,Mostly Cloudy,140,2013-05-14 17:53:00
2:53 PM,66.0,39.9,38,29.82,10.0,SE,15.0,-,N/A,,Mostly Cloudy,140,2013-05-14 18:53:00
3:53 PM,66.9,41.0,39,29.81,10.0,SSE,13.8,-,N/A,,Mostly Cloudy,160,2013-05-14 19:53:00
4:53 PM,70.0,43.0,38,29.79,10.0,ESE,11.5,-,N/A,,Mostly Cloudy,120,2013-05-14 20:53:00
5:53 PM,63.0,42.1,46,29.80,10.0,East,10.4,-,N/A,,Mostly Cloudy,90,2013-05-14 21:53:00
6:53 PM,62.1,43.0,50,29.78,10.0,East,6.9,-,N/A,,Mostly Cloudy,90,2013-05-14 22:53:00
7:53 PM,60.1,42.1,51,29.78,10.0,East,6.9,-,N/A,,Mostly Cloudy,90,2013-05-14 23:53:00
8:53 PM,57.0,41.0,55,29.78,10.0,ESE,10.4,-,N/A,,Mostly Cloudy,110,2013-05-15 00:53:00
9:53 PM,55.9,41.0,57,29.75,10.0,ESE,9.2,-,N/A,,Mostly Cloudy,110,2013-05-15 01:53:00
10:53 PM,55.0,43.0,64,29.77,10.0,East,4.6,-,0.00,Rain,Light Rain,100,2013-05-15 02:53:00
11:53 PM,53.1,45.0,74,29.76,10.0,Variable,3.5,-,0.00,Rain,Light Rain,0,2013-05-15 03:53:00